EW9837 Weather Reports


Display with metric or nautical units.
time (UTC)temp
F
wind
direction
speed
MPH
gust
MPH
rain 1hr
in
rain 24hr
in
rain mn
in
humidity
%
barometer
mb
20260503234535 82 16 5.0 11.0 0.00 0.00 0.00 27 1012.8
20260503233036 82 24 5.0 12.0 0.00 0.00 0.00 27 1013.0
20260503231535 82 20 7.0 14.0 0.00 0.00 0.00 28 1013.2
20260503230106 83 21 5.0 10.0 0.00 0.00 0.00 28 1013.5
20260503224536 83 15 6.0 12.0 0.00 0.00 0.00 29 1013.7
20260503223037 83 36 5.0 14.0 0.00 0.00 0.00 29 1013.9
20260503221608 82 15 6.0 13.0 0.00 0.00 0.00 29 1014.1
20260503220036 83 70 5.0 12.0 0.00 0.00 0.00 29 1014.4
20260503214534 83 49 6.0 15.0 0.00 0.00 0.00 29 1014.5
20260503213107 82 59 5.0 14.0 0.00 0.00 0.00 28 1014.6
20260503211535 82 61 5.0 11.0 0.00 0.00 0.00 28 1014.9
20260503210111 82 41 6.0 13.0 0.00 0.00 0.00 28 1015.1
20260503204535 82 55 6.0 12.0 0.00 0.00 0.00 29 1015.2
20260503203033 81 65 6.0 14.0 0.00 0.00 0.00 29 1015.4
20260503201531 81 71 7.0 19.0 0.00 0.00 0.00 29 1015.5
20260503193037 80 92 7.0 16.0 0.00 0.00 0.00 30 1015.9
20260503191536 80 68 8.0 15.0 0.00 0.00 0.00 31 1016.0
20260503183030 77 333 4.0 7.0 0.00 0.00 0.00 41 1016.4
20260503181535 77 341 4.0 7.0 0.00 0.00 0.00 43 1016.5
20260503180036 76 344 2.0 6.0 0.00 0.00 0.00 43 1016.6
20260503174653 75 357 3.0 7.0 0.00 0.00 0.00 43 1016.7
20260503173033 76 3 3.0 5.0 0.00 0.00 0.00 42 1016.9
20260503170152 76 352 1.0 4.0 0.00 0.00 0.00 43 1017.0
20260503090151 47 178 3.0 4.0 0.00 0.00 0.00 88 1017.0
20260503081606 48 143 2.0 4.0 0.00 0.00 0.00 86 1016.9
20260503071533 51 165 1.0 3.0 0.00 0.00 0.00 81 1017.0
20260503060106 55 179 4.0 5.0 0.00 0.00 0.00 77 1017.0
20260503054537 55 179 2.0 4.0 0.00 0.00 0.00 75 1016.9
20260503053035 56 183 1.0 4.0 0.00 0.00 0.00 72 1016.8
20260503051535 58 97 0.0 3.0 0.00 0.00 0.00 68 1016.7
20260503044536 61 204 1.0 3.0 0.00 0.00 0.00 59 1016.7
20260503041535 61 183 4.0 7.0 0.00 0.00 0.00 63 1016.5
20260503040041 62 162 3.0 4.0 0.00 0.00 0.00 61 1016.4
20260503034537 64 174 4.0 7.0 0.00 0.00 0.00 59 1016.1
20260503033035 65 171 4.0 7.0 0.00 0.00 0.00 58 1015.9
20260503031548 66 162 4.0 8.0 0.00 0.00 0.00 57 1015.6
20260503024534 67 168 3.0 5.0 0.00 0.00 0.00 58 1015.2
20260503023108 68 180 3.0 4.0 0.00 0.00 0.00 59 1015.1
20260503021534 69 181 2.0 4.0 0.00 0.00 0.00 57 1015.1
20260503014532 73 176 2.0 5.0 0.00 0.00 0.00 45 1015.1
20260503011529 75 133 3.0 9.0 0.00 0.00 0.00 38 1015.1
20260503010108 75 160 1.0 9.0 0.00 0.00 0.00 37 1015.1
20260503004535 75 81 3.0 8.0 0.00 0.00 0.00 36 1015.1
20260503003035 75 97 5.0 12.0 0.00 0.00 0.00 36 1015.1
20260503001536 76 110 5.0 14.0 0.00 0.00 0.00 35 1015.1